Home > Weather > Helsinki > Past weeks

Flag for Finland Past Weather in Helsinki, Finland — Yesterday and Last 2 Weeks

Now
68 °F

Passing clouds.


Feels Like: 68 °F
Forecast: 58 / 73 °F
Wind: 10 mph from South

Location: Helsinki Malmi Airport

Current Time: Jun 25, 2016 at 3:19:48 PM

Latest Report: Jun 25, 2016 at 2:50 PM


Visibility: N/A

Pressure: 30.01 "Hg

Humidity: 78%

Dew Point: 61 °F

Location of HelsinkiLocation

Past Weather in Helsinki — Graph

°F

Helsinki Temperature Yesterday

Maximum temperature yesterday: 68 °F (at 11:20 AM)
Minimum temperature yesterday: 55 °F (at 1:20 AM)
Average temperature yesterday: 61 °F

High & Low Weather Summary for the Past Weeks

 TemperatureHumidityPressure
High72 °F (Jun 25, 12:50 PM)100% (Jun 11, 1:50 AM)30.24 "Hg (Jun 11, 1:50 AM)
Low37 °F (Jun 11, 1:50 AM)30% (Jun 13, 3:50 PM)29.30 "Hg (Jun 18, 7:50 AM)
Average59 °F75%29.84 "Hg
* Reported Jun 10 2:20 PM — Jun 25 2:20 PM, Helsinki, Weather by CustomWeather, © 2016

Note: Actual official high and low records may vary slightly from our data, if they occured in-between our weather recording intervals... More about our weather records

Advertising

Helsinki Weather History for the Previous 24 Hours

Scroll right to see more
 ConditionsComfort  
Time TempWeatherWind HumidityBarometerVisibility
2:20 PM
Sat, Jun 25
68 °FPassing clouds.9 mph78%30.01 "HgN/A
1:50 PM70 °FPassing clouds.9 mph73%30.01 "HgN/A
1:20 PM72 °FPassing clouds.7 mph69%30.01 "HgN/A
12:50 PM72 °FSunny.3 mph69%29.98 "Hg10 mi
12:20 PM70 °FPassing clouds.7 mph73%30.01 "HgN/A
11:50 AM68 °FPartly sunny.5 mph73%30.01 "HgN/A
11:20 AM66 °FOvercast.5 mph83%30.01 "HgN/A
10:50 AM64 °FPartly sunny.5 mph88%30.01 "HgN/A
10:20 AM64 °FLow clouds.3 mph88%29.98 "HgN/A
9:50 AM63 °FLow clouds.5 mph88%29.98 "HgN/A
9:20 AM61 °FLow clouds.3 mph94%29.98 "HgN/A
8:50 AM61 °FLow clouds.3 mph94%29.98 "HgN/A
8:20 AM61 °FLow clouds.3 mph94%29.98 "Hg6 mi
7:50 AM59 °FLow clouds.3 mph100%29.98 "Hg4 mi
7:20 AM59 °FFog.2 mph100%29.98 "Hg3 mi
6:50 AM59 °FFog.3 mph100%29.98 "Hg2 mi
6:20 AM59 °FFog.2 mph100%29.98 "Hg1 mi
5:50 AM59 °FFog.3 mph94%29.98 "Hg1 mi
5:20 AM59 °FFog.3 mph94%29.98 "Hg1 mi
4:50 AM59 °FFog.2 mph100%29.98 "Hg1 mi
4:20 AM59 °FFog.3 mph94%29.98 "Hg0 mi
3:50 AM59 °FFog.5 mph94%29.98 "Hg1 mi
3:20 AM59 °FFog.6 mph94%29.98 "Hg2 mi
2:50 AM59 °FMostly cloudy.3 mph100%29.98 "Hg3 mi
2:20 AM61 °FLow clouds.2 mph94%29.98 "Hg4 mi
1:50 AM61 °FMostly cloudy.3 mph94%29.98 "Hg4 mi
1:20 AM61 °FMostly cloudy.3 mph94%30.01 "Hg5 mi
12:50 AM61 °FPassing clouds.1 mph94%30.01 "Hg5 mi
12:20 AM61 °FLow clouds.No wind94%30.01 "HgN/A
11:50 PM
Fri, Jun 24
61 °FLow clouds.1 mph94%30.01 "Hg6 mi
11:20 PM61 °FLow clouds.1 mph94%30.01 "HgN/A
10:50 PM61 °FLow clouds.2 mph94%30.01 "HgN/A
10:20 PM61 °FLow clouds.3 mph94%30.01 "HgN/A
9:50 PM61 °FLow clouds.6 mph94%30.01 "HgN/A
9:20 PM61 °FLow clouds.6 mph94%30.01 "HgN/A
8:50 PM61 °FOvercast.5 mph94%30.04 "HgN/A
8:20 PM61 °FOvercast.6 mph88%30.04 "HgN/A
7:50 PM61 °FOvercast.6 mph94%30.04 "HgN/A
7:20 PM63 °FBroken clouds.7 mph83%30.04 "HgN/A
6:50 PM63 °FPartly sunny.6 mph88%30.07 "HgN/A
6:20 PM63 °FOvercast.6 mph83%30.07 "HgN/A
5:50 PM63 °FOvercast.6 mph83%30.07 "HgN/A
5:20 PM63 °FPartly sunny.3 mph88%30.07 "HgN/A
4:50 PM63 °FMostly cloudy.2 mph88%30.07 "HgN/A
4:20 PM61 °FMore clouds than sun.6 mph94%30.09 "HgN/A
3:50 PM61 °FSprinkles. Low clouds.7 mph88%30.09 "HgN/A
3:20 PM61 °FDrizzle. Low clouds.6 mph94%30.09 "HgN/A
Weather by CustomWeather, © 2016

See weather overviewHow to use our weather pages